Home   Weather   Pickering   Past weeks

Flag for Canada Past Weather in Pickering, Ontario, Canada — Yesterday and Last 2 Weeks

Now
30 °F

Broken clouds.


Feels Like: 20 °F
Forecast: 29 / 32 °F
Wind: 14 mph from West

Location: Toronto Buttonville

Current Time: Dec 8, 2016 at 3:19:50 pm

Latest Report: Dec 8, 2016 at 2:00 pm


Visibility: 15 mi

Pressure: 29.91 "Hg

Humidity: 55%

Dew Point: 16 °F

Location of PickeringLocation

Past Weather in Pickering — Graph

°F

Pickering Temperature Yesterday

Maximum temperature yesterday: 37 °F (at 2:00 am)
Minimum temperature yesterday: 30 °F (at 11:00 pm)
Average temperature yesterday: 35 °F

High & Low Weather Summary for the Past Weeks

 TemperatureHumidityPressure
High57 °F (Nov 29, 2:00 pm)100% (Nov 24, 2:00 am)30.32 "Hg (Nov 24, 2:00 am)
Low28 °F (Nov 23, 10:00 pm)55% (Dec 8, 9:00 am)29.43 "Hg (Nov 30, 10:00 pm)
Average38 °F82%29.97 "Hg
* Reported Nov 23 2:00 pm — Dec 8 2:00 pm, Pickering, Weather by CustomWeather, © 2016

Note: Actual official high and low records may vary slightly from our data, if they occured in-between our weather recording intervals... More about our weather records

Advertising

Pickering Weather History for the Previous 24 Hours

Scroll right to see more
 ConditionsComfort  
Time TempWeatherWind HumidityBarometerVisibility
2:00 pm
Thu, Dec 8
30 °FBroken clouds.14 mph55%29.91 "Hg15 mi
1:00 pm30 °FPartly sunny.18 mph55%29.92 "Hg12 mi
12:00 pm30 °FSnow flurries. Overcast.10 mph55%29.92 "Hg14 mi
11:00 am30 °FSnow flurries. More clouds than sun.20 mph59%29.93 "Hg14 mi
10:00 am30 °FSnow flurries. Mostly cloudy.15 mph64%29.93 "Hg11 mi
9:00 am32 °FSnow flurries. Mostly cloudy.14 mph55%29.91 "Hg14 mi
8:52 am32 °FSnow flurries. Mostly cloudy.9 mph60%29.91 "Hg14 mi
8:00 am32 °FSnow flurries. Mostly cloudy.8 mph69%29.89 "Hg13 mi
7:00 am30 °FPassing clouds.5 mph75%29.89 "Hg12 mi
6:00 am30 °FLight snow. Overcast.10 mph75%29.88 "Hg15 mi
5:00 am30 °FLight snow. Passing clouds.8 mph80%29.88 "Hg12 mi
4:55 am30 °FLight snow. Passing clouds.6 mph80%29.89 "Hg12 mi
4:00 am30 °FPassing clouds.9 mph80%29.89 "Hg15 mi
3:00 am30 °FPassing clouds.5 mph80%29.90 "Hg15 mi
2:00 am30 °FPassing clouds.8 mph80%29.91 "Hg15 mi
1:00 am30 °FPassing clouds.7 mph80%29.92 "Hg12 mi
12:00 am30 °FPassing clouds.6 mph80%29.92 "Hg12 mi
11:00 pm
Wed, Dec 7
30 °FOvercast.5 mph86%29.93 "Hg12 mi
10:00 pm32 °FPassing clouds.6 mph75%29.94 "Hg15 mi
9:00 pm32 °FPassing clouds.7 mph75%29.96 "Hg15 mi
8:00 pm34 °FPassing clouds.9 mph70%29.96 "Hg15 mi
7:00 pm36 °FPassing clouds.6 mph65%29.97 "Hg15 mi
6:00 pm36 °FMostly cloudy.5 mph65%29.97 "Hg15 mi
5:00 pm36 °FPartly cloudy.7 mph60%29.95 "Hg15 mi
4:00 pm36 °FPartly sunny.9 mph60%29.95 "Hg15 mi
3:00 pm36 °FBroken clouds.10 mph60%29.95 "Hg15 mi
Weather by CustomWeather, © 2016

See weather overviewHow to use our weather pages